OPS 4682 DEB, 20048

Orbit data source: Space-Track

OPS 4682 DEB, 20048 is space debris in LEO originally from a launch on Sat, 03 Apr 1965 UTC launched from the Air Force Western Test Range (AFWTR). Debris objects in space refer to the collection of defunct objects orbiting the Earth. Examples of debris include non-operational satellites, rocket bodies, and fragments generated from explosions, collisions, or faulty payload assembly.

Loading next visibility...
Identifier
20048, 1965-027BC
Orbit
LEO
Country
Flag of USUS
Related business
Manufacturer
Unknown
Mission
Spacecraft
Bus & Motor
Unknown
Mass
Unknown
Launch date (UTC)
1965-04-03 (61 years ago)
Launch vehicle
Unknown
Launch site
Air Force Western Test Range (AFWTR)
Object type
Payload
Rocket body
Debris
Shape & HBR
Unknown shape, 0.1 m
Radar Cross Section
Medium (>0.1 m² and <1 m²)

Expand to show TLE details & history
Last TLE update: 3 weeks ago

TLE from 3 weeks ago
0 OPS 4682 DEB
1 20048U 65027BC  26216.86997370  .00000408  00000-0  12963-2 0  9995
2 20048  90.2475 355.5259 0032400 107.7701  47.4713 13.01731496622695
Epoch: 2026-08-04T20:52Z
TLE epoch observation values (Epoch: 2026-08-04T20:52:45.727Z)
Latitude
24.50704°
Longitude
-90.9849°
Altitude
1,241.596 km
Speed
7.244 km/s
True Right ascension
11h 42m 33s
True Declination
24° 23' 09"
Sunlit
Object was in daylight at epoch
Visualization orbit readout
Latitude
Unknown
Longitude
Unknown
Altitude
Unknown
Speed
Unknown
Apparent Right ascension
Unknown
Apparent Declination
Unknown
Sunlit
N/A
Visualization observer readout
Local Sidereal Time
22:45:00
Azimuth
Unknown
Elevation
Unknown
Doppler factor
Unknown
Orbital elements
Apogee altitude
1,277.157 km
Perigee altitude
1,227.711 km
Semi-major axis
7,630.571 km
Eccentricity
0.00324
Inclination
90.2475°
RAAN
355.5259°
Arg. of periapsis
107.7701°
True anomaly
47.74566°
Mean anomaly
47.4713°
Eccentric anomaly
47.6084°
Mean motion
3.25617 °/min
Orbital period
110.56 mins
BSTAR
0.0012963
Loading maneuver chart data...
Computing Atmospheric mass density...
Loading historical data...
Loading historical data...
Loading historical data...
Loading historical data...
Loading historical data...
Loading historical data...
Loading historical data...

Documentation

Showing up to 5 results
|